Radiation Dose at Monitoring Post of Fukushima Daini Nuclear Power Station
Date,Time,MP-1(microSv/h),MP-2(microSv/h),MP-3(microSv/h),MP-4(microSv/h),MP-5(microSv/h),MP-6(microSv/h),MP-7(microSv/h),Wind Direction,Wind Velocity(m/s),Rain
2023/07/15,00:00,0.145,0.133,0.207,0.197,0.206,0.115,0.075,south,2.6,Yes
2023/07/15,00:10,0.143,0.133,0.209,0.199,0.210,0.114,0.075,south,3.6,Yes
2023/07/15,00:20,0.145,0.133,0.209,0.201,0.209,0.115,0.074,south-southeast,3.6,Yes
2023/07/15,00:30,0.145,0.132,0.207,0.200,0.206,0.117,0.074,south,3.5,Yes
2023/07/15,00:40,0.146,0.134,0.210,0.197,0.209,0.115,0.076,south,4.6,Yes
2023/07/15,00:50,0.144,0.133,0.210,0.199,0.210,0.116,0.076,south,5.9,No
2023/07/15,01:00,0.146,0.133,0.207,0.200,0.208,0.116,0.075,south,7.0,No
2023/07/15,01:10,0.146,0.134,0.209,0.199,0.207,0.116,0.075,south,6.4,No
2023/07/15,01:20,0.144,0.133,0.209,0.199,0.211,0.116,0.076,south,6.3,No
2023/07/15,01:30,0.146,0.133,0.207,0.201,0.208,0.116,0.076,south,5.5,No
2023/07/15,01:40,0.145,0.135,0.209,0.199,0.207,0.116,0.076,south,5.2,No
2023/07/15,01:50,0.144,0.133,0.210,0.199,0.210,0.116,0.076,south,5.8,No
2023/07/15,02:00,0.145,0.133,0.208,0.201,0.209,0.116,0.075,south,5.7,No
2023/07/15,02:10,0.146,0.134,0.208,0.199,0.208,0.117,0.074,south,5.6,No
2023/07/15,02:20,0.145,0.133,0.209,0.198,0.207,0.115,0.075,south,4.5,No
2023/07/15,02:30,0.144,0.132,0.208,0.201,0.210,0.116,0.075,south,3.5,No
2023/07/15,02:40,0.146,0.133,0.209,0.201,0.208,0.116,0.075,south,3.4,No
2023/07/15,02:50,0.144,0.133,0.209,0.198,0.207,0.116,0.075,south-southwest,2.6,Yes
2023/07/15,03:00,0.143,0.132,0.208,0.200,0.210,0.115,0.076,south-southwest,2.5,No
2023/07/15,03:10,0.145,0.134,0.208,0.201,0.210,0.116,0.075,south-southwest,2.4,No
2023/07/15,03:20,0.144,0.134,0.210,0.198,0.207,0.116,0.076,south,2.5,No
2023/07/15,03:30,0.143,0.132,0.208,0.199,0.208,0.116,0.076,south,2.6,No
2023/07/15,03:40,0.144,0.134,0.208,0.202,0.210,0.116,0.075,south-southwest,3.0,No
2023/07/15,03:50,0.146,0.134,0.211,0.199,0.207,0.115,0.076,south-southeast,2.3,No
2023/07/15,04:00,0.144,0.133,0.209,0.197,0.207,0.115,0.076,southwest,1.4,No
2023/07/15,04:10,0.144,0.133,0.208,0.202,0.210,0.116,0.076,south-southwest,1.2,No
2023/07/15,04:20,0.146,0.134,0.210,0.199,0.211,0.117,0.075,southwest,1.1,No
2023/07/15,04:30,-,-,-,-,-,-,-,-,-,-
2023/07/15,04:40,0.145,0.134,0.209,0.201,0.210,0.116,0.077,southwest,0.8,Yes
2023/07/15,04:50,0.146,0.134,0.210,0.201,0.210,0.116,0.076,-,CALM,Yes
2023/07/15,05:00,0.146,0.133,0.208,0.198,0.208,0.116,0.076,south,1.0,Yes
2023/07/15,05:10,0.144,0.135,0.209,0.201,0.209,0.117,0.076,southwest,1.2,Yes
2023/07/15,05:20,0.147,0.136,0.214,0.203,0.213,0.119,0.079,south-southwest,1.3,Yes
2023/07/15,05:30,0.149,0.136,0.214,0.203,0.212,0.119,0.080,southwest,1.2,Yes
2023/07/15,05:40,0.149,0.138,0.212,0.205,0.212,0.121,0.081,south,0.6,Yes
2023/07/15,05:50,0.148,0.138,0.215,0.206,0.215,0.122,0.081,west-southwest,1.6,Yes
2023/07/15,06:00,0.149,0.137,0.214,0.204,0.214,0.121,0.080,west-southwest,1.4,Yes
2023/07/15,06:10,0.147,0.137,0.211,0.204,0.211,0.119,0.079,southwest,2.6,Yes
2023/07/15,06:20,0.146,0.137,0.214,0.205,0.212,0.119,0.079,west-southwest,2.2,Yes
2023/07/15,06:30,0.149,0.134,0.211,0.201,0.213,0.119,0.079,south,0.7,Yes
2023/07/15,06:40,0.148,0.136,0.210,0.201,0.212,0.117,0.079,south,1.8,Yes
2023/07/15,06:50,0.147,0.138,0.213,0.204,0.210,0.119,0.080,south-southeast,1.3,Yes
2023/07/15,07:00,0.149,0.136,0.212,0.202,0.213,0.119,0.078,west-southwest,1.1,Yes
2023/07/15,07:10,0.149,0.137,0.210,0.202,0.211,0.120,0.080,west-southwest,1.1,Yes
2023/07/15,07:20,0.148,0.139,0.214,0.203,0.210,0.120,0.080,west-northwest,1.3,Yes
2023/07/15,07:30,0.150,0.138,0.214,0.204,0.213,0.121,0.081,west-northwest,2.4,Yes
2023/07/15,07:40,0.153,0.140,0.213,0.203,0.215,0.122,0.082,west,3.3,Yes
2023/07/15,07:50,0.153,0.143,0.215,0.205,0.213,0.122,0.084,west-southwest,5.4,Yes
2023/07/15,08:00,0.154,0.143,0.216,0.205,0.211,0.123,0.084,west-southwest,4.0,Yes
2023/07/15,08:10,0.156,0.142,0.214,0.206,0.216,0.123,0.084,southwest,4.0,Yes
2023/07/15,08:20,0.152,0.141,0.213,0.204,0.214,0.122,0.084,southwest,4.1,Yes
2023/07/15,08:30,0.151,0.141,0.214,0.206,0.213,0.122,0.084,south-southwest,3.4,Yes
2023/07/15,08:40,0.154,0.140,0.215,0.206,0.211,0.123,0.084,south-southwest,3.6,Yes
2023/07/15,08:50,0.153,0.140,0.213,0.204,0.214,0.123,0.084,south-southwest,4.1,Yes
2023/07/15,09:00,0.150,0.140,0.214,0.204,0.214,0.122,0.085,south-southwest,4.0,Yes
2023/07/15,09:10,0.151,0.140,0.214,0.205,0.212,0.121,0.083,south-southwest,4.1,Yes
2023/07/15,09:20,0.152,0.139,0.213,0.205,0.212,0.123,0.084,south-southwest,4.2,Yes
2023/07/15,09:30,0.152,0.141,0.213,0.203,0.215,0.123,0.083,south-southwest,2.5,Yes
2023/07/15,09:40,0.150,0.139,0.215,0.205,0.212,0.121,0.081,south-southwest,3.5,Yes
2023/07/15,09:50,0.151,0.137,0.213,0.204,0.210,0.121,0.082,south,3.2,Yes
2023/07/15,10:00,0.153,0.142,0.214,0.204,0.214,0.122,0.082,south-southwest,3.5,Yes
2023/07/15,10:10,0.152,0.142,0.218,0.207,0.218,0.125,0.083,southwest,3.0,Yes
2023/07/15,10:20,0.158,0.146,0.220,0.210,0.217,0.125,0.085,south,1.6,Yes
2023/07/15,10:30,0.159,0.148,0.219,0.209,0.214,0.127,0.087,south-southeast,3.1,Yes
2023/07/15,10:40,0.157,0.147,0.219,0.209,0.220,0.125,0.087,south-southeast,4.4,Yes
2023/07/15,10:50,0.156,0.144,0.219,0.210,0.217,0.125,0.085,south-southeast,5.7,Yes
2023/07/15,11:00,0.157,0.145,0.217,0.209,0.215,0.124,0.085,south-southeast,6.1,Yes
2023/07/15,11:10,0.156,0.145,0.219,0.208,0.218,0.127,0.087,south,5.6,Yes
2023/07/15,11:20,0.156,0.145,0.219,0.212,0.219,0.127,0.087,south-southeast,4.9,Yes
2023/07/15,11:30,0.158,0.146,0.218,0.211,0.217,0.127,0.089,south-southeast,5.4,Yes
2023/07/15,11:40,0.157,0.146,0.221,0.210,0.221,0.128,0.090,south,5.7,Yes
2023/07/15,11:50,0.155,0.146,0.220,0.213,0.220,0.129,0.089,south,5.4,Yes
2023/07/15,12:00,0.158,0.146,0.219,0.212,0.216,0.128,0.089,south,5.7,Yes
2023/07/15,12:10,0.156,0.145,0.217,0.208,0.219,0.129,0.088,south,6.4,Yes
2023/07/15,12:20,0.152,0.143,0.217,0.209,0.217,0.126,0.086,south,6.1,Yes
2023/07/15,12:30,0.153,0.142,0.214,0.207,0.216,0.125,0.087,south,6.6,Yes
2023/07/15,12:40,0.153,0.142,0.215,0.206,0.213,0.126,0.086,south,6.4,Yes
2023/07/15,12:50,0.151,0.140,0.215,0.207,0.217,0.126,0.085,south,6.6,Yes
2023/07/15,13:00,0.150,0.137,0.211,0.207,0.213,0.122,0.083,south,5.9,Yes
2023/07/15,13:10,0.149,0.137,0.210,0.202,0.210,0.121,0.082,south,6.0,Yes
2023/07/15,13:20,0.148,0.137,0.211,0.200,0.211,0.121,0.081,south-southwest,6.5,Yes
2023/07/15,13:30,0.144,0.134,0.210,0.203,0.211,0.119,0.080,south-southwest,6.7,Yes
2023/07/15,13:40,0.143,0.133,0.207,0.200,0.209,0.119,0.079,south-southwest,5.1,Yes
2023/07/15,13:50,0.144,0.134,0.207,0.198,0.207,0.118,0.079,southwest,4.8,Yes
2023/07/15,14:00,0.142,0.134,0.208,0.196,0.207,0.119,0.077,south-southwest,4.5,Yes
2023/07/15,14:10,0.142,0.135,0.208,0.200,0.211,0.118,0.078,south-southwest,4.8,Yes
2023/07/15,14:20,0.141,0.132,0.205,0.200,0.210,0.117,0.077,south-southwest,5.4,Yes
2023/07/15,14:30,0.143,0.133,0.204,0.197,0.207,0.117,0.076,south-southwest,5.9,Yes
2023/07/15,14:40,0.143,0.133,0.207,0.197,0.208,0.117,0.077,south-southwest,6.1,Yes
2023/07/15,14:50,0.143,0.134,0.206,0.199,0.208,0.118,0.077,south-southwest,5.6,Yes
2023/07/15,15:00,0.141,0.131,0.205,0.199,0.211,0.117,0.076,south-southwest,6.2,Yes
2023/07/15,15:10,0.142,0.132,0.204,0.198,0.208,0.116,0.077,south,5.8,Yes
2023/07/15,15:20,0.143,0.133,0.207,0.196,0.207,0.117,0.077,south,5.9,Yes
2023/07/15,15:30,0.142,0.134,0.207,0.198,0.206,0.118,0.078,south,5.9,Yes
2023/07/15,15:40,0.140,0.131,0.205,0.201,0.210,0.118,0.077,south,6.4,Yes
2023/07/15,15:50,0.142,0.131,0.204,0.198,0.211,0.117,0.077,south,6.3,Yes
2023/07/15,16:00,0.145,0.132,0.204,0.196,0.207,0.116,0.077,south-southwest,6.4,No
2023/07/15,16:10,0.144,0.133,0.208,0.196,0.205,0.116,0.076,south-southwest,5.1,Yes
2023/07/15,16:20,0.142,0.132,0.205,0.199,0.207,0.117,0.076,south,5.0,Yes
2023/07/15,16:30,0.141,0.131,0.204,0.197,0.209,0.115,0.075,south,5.4,No
2023/07/15,16:40,0.143,0.131,0.204,0.196,0.208,0.115,0.076,south-southwest,5.3,Yes
2023/07/15,16:50,0.144,0.132,0.206,0.195,0.206,0.114,0.075,south,5.9,Yes
2023/07/15,17:00,0.143,0.133,0.206,0.197,0.206,0.115,0.075,south,5.9,Yes
2023/07/15,17:10,0.143,0.131,0.204,0.198,0.206,0.115,0.074,south-southwest,6.4,Yes
2023/07/15,17:20,0.141,0.130,0.203,0.196,0.209,0.115,0.074,south-southwest,6.1,No
2023/07/15,17:30,0.144,0.130,0.206,0.196,0.207,0.114,0.074,south-southwest,5.9,No
2023/07/15,17:40,0.142,0.132,0.205,0.194,0.206,0.115,0.075,south-southwest,5.9,No
2023/07/15,17:50,0.142,0.131,0.204,0.197,0.205,0.115,0.075,south-southwest,5.3,Yes
2023/07/15,18:00,0.142,0.131,0.203,0.197,0.206,0.116,0.075,south-southwest,5.2,Yes
2023/07/15,18:10,0.143,0.131,0.202,0.196,0.208,0.115,0.075,south-southwest,4.9,No
2023/07/15,18:20,0.143,0.132,0.207,0.194,0.207,0.114,0.075,south,5.5,No
2023/07/15,18:30,0.143,0.131,0.205,0.195,0.206,0.114,0.075,south-southwest,4.9,No
2023/07/15,18:40,0.142,0.131,0.202,0.198,0.204,0.114,0.075,south-southwest,4.2,No
2023/07/15,18:50,0.142,0.130,0.203,0.197,0.208,0.115,0.074,southwest,3.2,No
2023/07/15,19:00,0.143,0.131,0.205,0.195,0.209,0.115,0.074,southwest,3.3,No
2023/07/15,19:10,0.143,0.131,0.205,0.196,0.207,0.115,0.076,southwest,3.5,No
2023/07/15,19:20,0.142,0.130,0.204,0.198,0.205,0.114,0.075,southwest,3.7,Yes
2023/07/15,19:30,0.143,0.131,0.205,0.197,0.208,0.115,0.075,west-southwest,3.5,Yes
2023/07/15,19:40,0.143,0.132,0.206,0.195,0.209,0.115,0.075,west-southwest,4.0,No
2023/07/15,19:50,0.142,0.130,0.203,0.195,0.206,0.114,0.076,west-southwest,5.8,No
2023/07/15,20:00,0.141,0.130,0.203,0.199,0.204,0.115,0.075,west-southwest,5.9,No
2023/07/15,20:10,0.143,0.132,0.205,0.197,0.208,0.115,0.074,west-southwest,5.9,No
2023/07/15,20:20,0.144,0.131,0.204,0.193,0.208,0.115,0.075,west-southwest,5.9,No
2023/07/15,20:30,0.142,0.131,0.203,0.197,0.207,0.114,0.075,west-southwest,5.3,No
2023/07/15,20:40,0.142,0.131,0.204,0.197,0.204,0.115,0.074,west-southwest,5.9,No
2023/07/15,20:50,0.143,0.131,0.205,0.194,0.205,0.115,0.075,west-southwest,5.4,No
2023/07/15,21:00,0.142,0.130,0.203,0.195,0.208,0.115,0.075,southwest,5.6,No
2023/07/15,21:10,0.141,0.131,0.204,0.197,0.206,0.114,0.075,southwest,5.2,No
2023/07/15,21:20,0.142,0.131,0.205,0.196,0.204,0.115,0.074,west-southwest,5.5,No
2023/07/15,21:30,0.143,0.131,0.203,0.194,0.205,0.114,0.074,west-southwest,5.9,No
2023/07/15,21:40,0.142,0.130,0.203,0.196,0.208,0.114,0.075,west-southwest,6.2,No
2023/07/15,21:50,0.141,0.131,0.204,0.197,0.207,0.114,0.074,west-southwest,5.2,No
2023/07/15,22:00,0.143,0.130,0.205,0.195,0.205,0.115,0.074,west-southwest,5.2,No
2023/07/15,22:10,0.143,0.130,0.204,0.194,0.205,0.115,0.075,southwest,4.9,No
2023/07/15,22:20,0.142,0.131,0.202,0.197,0.208,0.114,0.075,west-southwest,5.6,No
2023/07/15,22:30,0.142,0.131,0.203,0.196,0.207,0.114,0.074,west-southwest,6.3,No
2023/07/15,22:40,0.143,0.130,0.206,0.194,0.206,0.115,0.074,west-southwest,5.4,No
2023/07/15,22:50,0.142,0.131,0.204,0.195,0.205,0.114,0.075,west-southwest,4.5,No
2023/07/15,23:00,0.141,0.132,0.203,0.198,0.206,0.114,0.075,southwest,4.4,No
2023/07/15,23:10,0.144,0.130,0.204,0.197,0.208,0.115,0.074,west-southwest,5.2,No
2023/07/15,23:20,0.143,0.130,0.205,0.195,0.207,0.114,0.075,southwest,3.8,No
2023/07/15,23:30,0.141,0.132,0.204,0.197,0.206,0.114,0.075,southwest,4.3,No
2023/07/15,23:40,0.143,0.131,0.204,0.197,0.206,0.115,0.074,southwest,4.1,No
2023/07/15,23:50,0.143,0.131,0.205,0.196,0.207,0.115,0.074,southwest,3.8,No
